Temperature
19 19 19 19 21 23 24 24 24 23 24 23 23 24 24 24 23 22 18 18 18 18 18 18 18 18 18 18 18 18 18 18 18 18 18 18 18 18 18 18 18 18 18 18 18 18 18 18 18
19 19 19 20 23 24 24 24 24 24 24 23 23 24 24 23 21 20 18 18 18 18 17 17 18 18 18 18 18 18 18 18 18 18 18 18 18 17 17 17 17 17 17 18 18 18 18 18 18
19 19 20 23 24 24 24 24 24 24 23 23 24 23 23 22 20 19 18 18 18 18 17 17 18 18 18 18 18 18 18 18 18 17 17 17 17 17 17 17 17 17 17 17 17 17 17 18 18
18 19 21 23 24 24 24 24 24 24 23 23 24 24 22 20 20 19 18 18 18 17 17 17 18 18 18 17 17 17 17 17 17 17 17 17 17 17 17 17 17 17 17 17 17 17 17 17 17
19 21 23 23 24 24 25 24 24 24 24 24 24 24 22 20 19 19 18 18 18 18 17 17 18 17 17 17 17 17 17 17 17 17 17 17 17 17 17 17 17 17 17 17 17 17 17 17 17
20 22 23 23 24 24 24 23 24 25 24 24 24 23 21 19 19 19 18 18 18 18 17 17 18 17 17 17 17 17 17 17 16 16 16 16 16 16 16 16 17 17 17 17 17 17 17 17 17
21 23 23 24 23 23 24 23 24 25 24 24 23 23 21 20 19 18 18 18 18 18 17 17 17 17 17 17 17 17 16 16 16 16 16 16 16 16 16 16 16 16 16 16 16 16 17 17 17
20 23 23 23 23 23 23 23 23 24 24 23 23 23 22 20 19 18 18 18 18 18 17 17 17 17 17 16 17 16 16 16 16 16 16 16 16 16 16 16 16 16 16 16 16 16 16 16 16
20 22 23 23 23 23 23 24 23 23 23 22 22 22 22 20 19 18 18 18 18 18 18 17 17 17 17 16 16 16 16 16 16 16 16 15 15 15 15 15 15 16 16 16 16 16 16 16 16
21 22 23 23 23 23 23 23 23 23 23 23 22 21 20 20 19 19 19 19 19 18 18 18 17 17 17 16 16 16 16 16 16 15 15 15 15 15 15 15 15 15 15 15 15 16 16 16 16
22 23 23 23 22 22 23 23 23 24 24 24 23 21 20 20 20 20 20 20 19 19 18 18 18 17 17 17 16 16 16 16 16 15 15 15 15 15 15 15 15 15 15 15 15 15 15 16 16
22 22 22 22 21 22 23 23 23 23 24 23 23 22 21 20 20 20 20 20 19 19 18 18 18 17 17 17 16 16 16 16 16 15 15 15 15 15 15 15 15 15 15 15 15 15 15 15 16
22 22 21 21 21 22 22 23 23 23 23 22 22 21 21 21 21 21 20 20 19 19 18 18 18 18 17 17 16 16 16 16 16 15 15 15 15 15 15 15 14 14 14 15 15 15 15 15 15
22 22 22 22 22 22 23 23 23 23 23 22 22 22 22 21 21 21 20 20 20 19 19 18 18 17 17 17 16 16 16 15 15 15 15 15 15 14 14 14 14 14 14 14 14 15 15 15 15
21 22 22 22 22 22 23 23 24 23 23 23 22 22 22 21 21 21 20 20 20 19 19 18 18 17 17 17 16 16 16 16 15 15 15 14 14 14 14 14 14 14 14 14 14 15 15 15 15
22 22 22 23 23 22 23 23 24 23 23 23 23 22 21 21 21 21 20 20 20 19 19 18 18 17 17 17 16 16 16 15 15 15 14 14 14 14 14 14 14 14 14 14 14 14 14 15 15
22 22 22 23 23 23 23 24 24 23 23 23 23 22 22 21 21 21 20 20 20 19 19 18 18 17 17 17 16 16 16 15 15 15 14 14 14 14 14 13 13 13 13 14 14 14 14 14 14
22 23 23 23 23 23 23 24 24 23 23 23 23 23 22 22 22 21 20 20 20 19 19 18 18 18 17 17 16 16 15 15 15 14 14 14 14 14 13 13 13 13 13 13 13 13 13 14 14
23 23 23 23 23 23 24 24 25 24 23 24 23 23 23 22 22 21 20 20 20 19 19 18 18 18 17 17 16 16 16 15 15 14 14 14 14 13 13 13 13 13 13 13 13 13 13 13 14
23 23 23 23 23 23 24 24 25 24 24 23 24 23 23 22 22 21 20 20 20 19 19 18 18 18 17 17 16 16 16 15 15 14 14 14 14 13 13 13 13 13 13 13 13 13 13 13 13
22 23 23 23 23 23 24 24 25 25 24 23 23 23 23 22 22 21 20 20 20 19 19 19 18 18 18 17 16 16 16 15 15 14 14 14 14 13 13 13 13 13 13 13 13 13 13 13 13
22 23 23 23 23 24 24 24 25 25 24 24 23 23 23 22 21 21 20 20 20 19 19 19 18 18 18 17 17 16 16 15 15 14 14 14 14 13 13 13 13 13 13 13 13 13 13 13 13
22 22 23 23 24 24 24 25 25 25 24 24 24 23 22 22 21 21 20 20 20 19 19 19 18 18 18 17 17 16 16 15 15 14 14 14 14 13 13 13 13 13 13 13 13 13 13 13 13
22 23 23 23 24 24 24 25 24 25 24 24 24 23 22 22 21 21 20 20 19 19 19 19 19 18 18 17 17 16 16 15 15 14 14 14 14 13 13 13 13 13 13 13 13 13 13 13 13
23 23 23 23 23 24 24 24 24 24 24 24 24 23 22 21 21 21 20 20 20 20 19 19 19 18 18 17 17 16 16 15 15 14 14 14 14 14 13 13 13 13 13 13 13 13 13 13 13
23 24 24 23 24 24 24 24 24 24 23 22 22 22 21 21 21 20 20 20 20 20 19 19 19 18 18 17 17 16 16 15 15 15 14 14 14 14 13 13 13 13 13 13 13 13 12 12 13
24 24 25 25 25 24 24 24 24 23 23 23 22 22 21 21 20 20 20 20 20 20 20 19 19 18 18 17 17 16 16 15 15 15 14 14 14 14 14 13 13 13 13 13 13 13 13 12 13
24 24 24 25 24 23 24 24 24 23 23 23 22 22 21 20 20 20 20 20 20 20 20 19 19 18 18 17 17 16 16 15 15 15 15 14 14 14 14 14 13 13 13 13 13 13 13 13 13
23 24 24 25 25 24 23 24 24 23 23 23 22 21 20 20 19 19 19 19 19 19 19 19 19 18 18 17 17 16 16 16 15 15 15 14 14 14 14 13 13 13 13 13 13 13 13 13 13
24 25 25 25 24 24 24 23 23 22 22 22 21 20 20 19 19 19 19 19 19 19 19 19 18 18 18 17 17 17 16 16 15 15 15 14 14 14 14 14 13 13 13 13 13 13 13 13 13
Wind_Speed
6 5 3 2 3 2 2 3 2 2 2 3 3 3 4 5 4 4 5 7 9 10 10 10 9 9 9 8 8 8 7 7 6 5 5 4 3 2 1 1 0 1 1 1 1 1 2 3 3
5 3 3 3 3 2 3 3 3 3 4 4 4 4 4 5 5 7 7 9 10 10 10 10 10 9 8 8 8 8 7 6 6 5 4 3 2 2 1 1 1 2 2 2 3 3 3 3 4
5 3 3 3 2 1 3 3 3 4 4 2 3 3 4 5 5 5 8 11 10 10 10 11 10 9 9 8 8 7 7 6 5 4 4 3 2 2 2 3 3 3 3 4 4 4 4 4 4
3 3 3 3 0 2 2 2 3 5 4 2 3 5 5 5 4 8 11 12 11 10 10 11 9 9 8 7 7 7 6 5 4 3 3 3 2 2 3 3 4 4 4 4 5 5 4 4 5
3 3 3 2 0 2 2 2 3 4 3 3 3 5 6 5 8 12 12 11 11 10 10 10 9 8 7 7 7 6 5 5 4 4 3 3 3 3 3 4 4 4 4 5 5 5 5 5 5
3 3 3 2 1 1 2 2 3 4 4 4 4 5 5 8 10 11 11 10 10 9 9 10 9 7 7 6 6 5 5 4 4 4 3 3 4 4 4 4 4 4 5 5 5 5 6 6 5
3 3 3 2 1 2 2 1 2 3 3 3 3 4 6 9 10 11 11 9 9 8 8 8 9 8 7 6 5 5 4 4 4 3 3 4 4 4 4 4 4 5 5 5 5 6 6 5 5
3 3 4 2 1 2 2 2 1 2 2 3 2 3 6 11 12 11 10 9 8 8 7 7 6 6 5 6 6 4 4 4 3 4 4 3 2 1 2 3 3 5 5 5 6 6 6 5 5
3 5 4 1 1 3 2 2 2 2 4 3 2 3 8 14 14 12 10 9 8 7 6 6 5 5 4 4 4 3 3 2 1 1 2 2 3 4 2 5 5 5 5 5 5 5 5 6 6
5 5 3 0 0 1 1 1 2 3 4 4 5 7 11 15 14 12 11 10 9 8 7 6 5 4 3 2 2 1 1 1 1 3 2 3 4 4 5 2 2 3 4 4 3 5 6 8 5
5 4 2 1 0 1 2 2 2 3 3 4 6 11 14 14 13 12 11 9 8 8 7 6 5 4 3 2 1 1 1 1 1 2 2 3 4 4 4 4 2 3 4 5 3 5 5 5 3
6 4 2 1 1 2 2 2 2 4 1 3 5 12 14 14 13 12 10 9 8 7 7 6 5 4 3 2 1 0 1 1 2 2 3 3 3 4 4 4 5 5 4 4 5 4 4 5 5
8 5 3 2 2 2 3 3 2 3 3 4 7 12 14 13 12 11 9 9 8 8 7 6 5 3 3 2 1 1 1 2 2 2 3 4 4 4 4 4 4 5 5 4 4 5 4 4 4
6 5 3 3 3 3 4 4 4 3 4 7 9 12 13 13 12 11 10 9 9 8 7 6 5 4 3 2 1 0 1 0 2 2 3 4 4 4 4 5 4 5 5 5 5 5 4 4 3
5 5 4 4 4 3 4 5 5 4 6 8 9 10 11 12 11 11 10 9 9 8 7 6 5 4 4 2 1 0 1 1 1 2 3 4 4 5 5 5 5 5 5 5 5 5 4 4 3
7 7 6 5 5 4 5 4 3 4 7 7 7 8 9 10 11 10 9 9 8 7 7 6 5 5 4 3 2 1 1 1 1 2 3 4 4 5 5 4 5 5 5 5 4 5 4 4 3
8 8 8 6 5 4 6 4 4 4 5 6 7 8 9 10 10 9 9 9 8 8 7 7 6 5 4 3 2 1 0 0 1 1 2 3 4 5 4 4 5 5 4 4 4 4 4 4 3
10 9 8 7 5 6 6 5 3 4 5 5 6 7 8 9 10 9 9 9 8 8 7 7 6 6 5 3 2 1 1 1 0 1 2 3 4 5 5 4 5 5 4 4 4 4 3 4 3
7 8 7 5 3 5 6 5 4 4 6 6 6 6 7 7 8 8 9 9 9 8 8 7 7 6 5 3 2 1 1 1 1 1 2 2 3 4 4 4 5 5 4 5 5 4 3 3 3
6 7 6 4 3 4 4 4 3 4 5 4 5 5 6 6 7 9 9 9 9 9 8 8 7 7 6 4 2 1 0 1 1 1 1 2 3 4 4 5 4 4 4 4 4 3 3 2 2
6 5 5 4 4 4 3 3 4 4 4 3 3 4 4 5 6 8 9 9 8 8 8 7 7 7 6 5 3 2 1 2 1 1 1 2 3 3 4 5 5 5 4 4 4 3 3 3 2
5 3 3 4 5 3 3 4 5 5 5 4 4 4 4 4 6 7 8 8 8 8 7 7 7 7 6 6 4 3 2 1 1 1 1 2 2 3 4 4 5 4 4 4 4 3 3 3 3
3 3 3 3 3 4 2 3 5 5 4 4 4 4 3 4 5 6 7 7 7 7 7 7 7 6 6 6 5 4 3 2 1 2 2 2 2 2 3 4 4 4 4 4 4 3 3 2 3
5 6 5 4 4 4 2 2 5 4 2 3 3 3 3 4 4 5 5 5 6 6 6 6 7 6 6 6 6 5 4 3 2 2 2 3 2 2 3 3 4 4 3 3 3 3 2 2 2
6 6 5 6 5 4 2 2 4 5 3 2 2 2 3 4 4 5 5 6 6 6 7 7 7 7 7 7 6 6 5 4 4 3 3 3 3 3 3 3 4 4 3 3 3 3 2 2 2
6 5 2 4 6 6 4 4 5 5 4 3 3 3 4 4 3 3 4 4 5 6 7 7 7 7 7 7 6 6 5 4 3 4 4 4 3 3 4 4 3 3 3 3 3 3 3 2 2
4 3 2 1 4 5 5 5 4 4 5 5 5 5 4 4 3 2 2 2 3 4 5 7 7 7 7 7 6 6 6 5 4 4 4 4 4 4 4 4 3 3 3 3 3 3 3 3 3
2 2 3 3 5 5 6 5 3 3 4 4 4 5 5 4 4 3 2 2 2 2 3 5 6 7 6 6 6 5 6 5 5 5 5 5 4 4 4 4 4 3 3 3 3 3 3 3 2
4 3 2 1 1 3 5 4 3 2 3 4 5 5 5 4 4 3 2 2 1 2 2 4 5 6 6 6 6 6 6 5 5 5 5 5 5 4 4 4 4 3 3 3 3 4 3 3 3
3 2 4 2 3 1 2 4 4 2 3 3 4 5 5 5 5 4 4 3 2 1 1 2 4 5 5 5 6 6 6 6 6 6 6 6 5 5 5 5 4 4 3 4 4 4 3 3 3
Wind_Direction
161 166 200 234 236 218 108 102 107 116 101 79 76 67 56 43 22 60 106 129 126 130 131 133 129 125 122 120 116 111 106 102 100 99 97 96 94 90 86 79 4 307 303 304 301 306 305 312 314
158 172 226 245 254 174 108 115 120 93 107 114 98 80 68 67 66 98 124 130 131 128 130 125 124 122 118 114 110 107 104 101 96 90 83 74 66 47 16 328 312 316 316 311 306 298 293 294 302
162 213 253 254 260 45 94 111 109 109 131 141 107 76 57 81 104 112 125 137 134 127 125 120 124 120 118 114 108 103 99 92 85 79 72 61 43 21 344 321 315 314 310 302 298 295 295 297 299
188 216 238 251 254 56 75 112 126 134 140 147 126 100 87 80 101 117 130 139 133 129 126 122 123 118 115 110 103 98 93 86 78 70 60 42 21 3 346 334 325 312 305 304 299 294 293 298 300
218 241 237 232 20 64 77 118 160 160 146 147 137 104 101 96 109 124 134 139 136 132 128 126 124 120 115 110 105 99 92 85 74 66 51 33 13 357 350 342 332 324 312 309 306 296 288 290 294
215 237 240 214 134 88 100 144 177 166 140 137 136 116 102 123 130 133 136 140 136 135 132 129 130 123 116 113 108 101 92 82 69 54 40 26 12 358 346 337 332 324 319 316 309 300 290 281 281
236 235 245 229 183 129 88 121 175 167 145 137 139 120 122 139 137 139 140 140 138 139 136 136 135 134 127 114 106 100 90 73 57 44 32 27 14 0 348 335 328 318 317 316 315 307 295 286 279
252 248 238 220 176 106 79 124 153 179 116 110 150 133 140 149 145 143 142 143 146 147 145 142 138 133 130 127 115 98 84 69 59 49 38 22 354 345 340 309 354 331 323 314 309 310 303 292 280
226 236 236 208 135 108 111 133 118 141 138 140 135 91 126 143 150 150 152 155 155 157 158 154 149 140 131 119 115 124 115 92 112 104 82 306 328 342 318 22 10 348 337 326 317 309 301 282 241
213 232 231 117 84 115 142 152 144 166 162 157 138 125 138 152 160 163 166 164 164 167 169 167 163 156 149 132 124 104 83 76 2 1 357 341 349 343 334 60 348 332 321 289 305 288 265 261 258
210 226 196 179 150 188 190 179 189 189 186 176 159 154 157 164 169 171 171 168 166 166 168 174 174 168 163 155 134 58 24 16 359 356 353 338 334 328 328 327 310 307 298 305 305 273 281 283 281
210 209 200 187 185 223 213 208 217 222 194 121 144 155 162 172 174 177 174 171 171 173 176 179 185 180 177 166 142 250 346 349 355 347 342 339 336 331 341 324 332 324 323 325 311 306 300 293 285
212 201 189 200 210 244 235 223 234 230 214 166 150 160 169 176 177 178 178 178 179 179 184 183 185 190 182 164 206 265 346 339 359 0 334 338 331 332 337 325 327 318 322 313 308 302 310 300 292
198 199 203 216 225 231 237 238 225 207 175 167 168 172 176 181 183 180 185 186 185 185 185 180 186 188 200 197 216 306 334 319 332 347 339 340 343 337 334 330 328 324 322 319 308 303 302 295 292
185 194 203 211 219 215 227 228 217 190 173 174 177 176 181 184 187 191 191 190 189 189 188 185 188 192 200 215 220 251 292 316 340 349 341 348 346 336 336 331 331 330 322 313 308 304 297 291 284
192 203 202 188 197 195 218 213 158 167 174 176 177 178 189 190 196 195 194 194 190 190 189 185 186 193 193 199 214 224 291 326 338 345 344 344 345 343 339 332 333 334 327 318 310 302 294 286 287
190 198 192 177 186 188 210 203 163 164 182 186 187 191 199 198 200 196 198 199 196 195 193 189 187 190 184 185 192 200 221 307 332 343 353 345 345 339 338 336 334 335 330 325 319 316 308 300 300
184 187 183 181 171 197 209 214 183 181 199 200 197 198 203 206 200 194 195 196 195 197 196 188 182 187 178 180 186 171 205 231 325 345 357 346 340 342 338 331 334 336 330 331 323 316 306 300 292
184 187 178 164 165 203 213 228 222 199 202 206 200 201 208 205 192 186 187 189 195 197 196 189 188 183 181 179 194 204 217 238 269 317 338 335 337 339 339 329 337 335 335 329 322 318 306 296 296
187 184 170 154 171 209 220 236 220 196 207 214 208 200 197 191 183 179 186 189 195 196 196 195 193 188 185 184 194 206 238 274 311 300 313 331 335 335 333 334 330 333 328 325 325 319 308 307 295
184 183 163 155 165 183 226 187 169 159 168 177 194 197 192 189 185 178 185 190 194 197 197 197 193 186 184 180 177 171 181 228 221 259 302 329 330 333 333 332 327 328 326 332 325 316 307 305 304
163 170 180 183 186 155 214 146 127 138 142 157 176 184 182 175 178 177 182 190 195 197 196 198 191 188 182 182 193 204 233 276 305 299 306 307 313 328 329 325 321 321 326 326 321 325 305 296 295
128 138 169 182 178 162 189 163 118 123 131 147 164 170 170 169 175 179 186 193 196 194 193 194 189 188 183 189 192 216 240 274 289 281 285 294 310 320 325 323 321 320 319 325 326 323 309 295 296
145 143 142 178 199 165 134 159 106 102 98 113 136 150 156 158 164 173 179 188 192 190 188 189 189 190 186 194 202 217 233 249 263 270 286 288 297 312 332 325 319 316 319 319 318 315 307 299 296
198 188 167 171 174 134 107 130 96 64 39 43 92 127 140 148 160 166 174 186 189 190 189 190 192 194 194 201 210 218 226 238 249 267 275 286 298 310 329 325 321 322 318 316 311 298 300 286 286
194 227 208 164 150 134 150 129 94 48 39 58 80 97 111 125 143 159 175 186 194 196 192 195 198 200 198 206 214 220 221 234 251 257 274 278 291 308 319 314 318 317 313 307 299 290 286 281 274
186 212 317 127 134 142 132 125 111 70 74 76 81 86 89 98 116 137 154 174 191 196 197 201 204 206 204 209 216 222 225 233 246 255 265 274 280 296 303 301 306 306 302 302 297 286 286 280 276
308 188 203 198 161 148 142 143 126 95 76 82 84 84 84 89 100 108 123 143 168 183 194 199 206 212 211 213 216 220 228 232 244 255 261 269 278 286 293 297 299 294 285 286 289 288 293 279 265
176 184 195 159 195 171 154 130 71 90 89 96 90 84 81 77 75 73 80 97 119 142 170 193 204 212 213 215 218 219 224 230 237 245 254 261 271 273 282 288 292 293 285 277 274 282 283 277 266
222 217 216 195 148 181 156 117 80 84 86 93 89 83 78 74 73 71 68 70 76 109 178 197 209 213 215 219 221 226 228 229 236 243 248 254 264 268 275 279 280 283 281 279 278 279 275 270 270
Height
1507 1507 1508 1509 1507 1504 1503 1501 1499 1502 1502 1504 1504 1503 1503 1505 1507 1515 1516 1514 1516 1518 1519 1520 1521 1522 1524 1524 1525 1526 1526 1527 1527 1528 1528 1528 1528 1529 1529 1529 1529 1529 1529 1529 1529 1529 1528 1528 1528
1508 1508 1509 1509 1504 1504 1504 1499 1500 1501 1503 1505 1505 1505 1505 1508 1511 1514 1515 1516 1517 1519 1521 1522 1522 1524 1525 1525 1526 1527 1527 1527 1527 1528 1528 1528 1528 1528 1528 1528 1528 1528 1528 1528 1528 1528 1528 1528 1528
1507 1508 1510 1505 1502 1502 1503 1500 1500 1502 1504 1505 1505 1506 1507 1511 1514 1515 1516 1517 1519 1521 1522 1522 1523 1525 1525 1526 1527 1527 1527 1527 1527 1527 1528 1528 1528 1528 1527 1527 1528 1528 1528 1527 1527 1527 1527 1527 1527
1508 1509 1508 1504 1502 1499 1498 1498 1500 1502 1504 1505 1505 1507 1511 1514 1515 1516 1517 1519 1520 1522 1523 1524 1525 1525 1526 1527 1527 1527 1527 1527 1527 1527 1527 1527 1527 1527 1527 1526 1526 1527 1526 1526 1526 1526 1526 1526 1526
1508 1508 1504 1503 1500 1498 1498 1500 1501 1502 1503 1505 1506 1508 1512 1515 1516 1517 1518 1520 1522 1524 1525 1525 1526 1526 1527 1527 1528 1528 1528 1528 1528 1527 1527 1527 1527 1526 1526 1526 1526 1525 1525 1525 1525 1525 1525 1524 1524
1508 1505 1505 1504 1501 1499 1499 1501 1501 1501 1503 1505 1507 1509 1513 1516 1517 1519 1520 1522 1524 1525 1526 1526 1527 1527 1528 1528 1528 1528 1528 1528 1528 1528 1527 1527 1527 1526 1525 1525 1525 1524 1524 1524 1523 1523 1523 1523 1523
1507 1503 1502 1501 1502 1501 1501 1502 1502 1501 1503 1506 1508 1509 1514 1517 1518 1520 1522 1523 1525 1526 1527 1528 1529 1529 1529 1529 1529 1529 1529 1528 1528 1528 1527 1527 1526 1525 1525 1524 1524 1523 1523 1522 1522 1522 1521 1521 1521
1506 1504 1501 1501 1502 1503 1503 1503 1503 1503 1505 1508 1509 1509 1513 1517 1519 1520 1522 1524 1526 1527 1528 1529 1530 1531 1531 1530 1530 1529 1529 1529 1528 1528 1527 1527 1526 1525 1524 1524 1523 1522 1521 1521 1520 1520 1520 1520 1520
1506 1505 1502 1501 1502 1502 1503 1503 1505 1505 1506 1508 1510 1511 1513 1516 1519 1521 1523 1525 1526 1528 1529 1530 1531 1531 1531 1531 1530 1530 1529 1529 1528 1528 1527 1527 1527 1526 1525 1523 1522 1521 1520 1520 1519 1518 1518 1518 1518
1505 1503 1500 1500 1501 1501 1503 1503 1504 1505 1506 1508 1510 1512 1514 1516 1519 1521 1523 1525 1527 1528 1529 1530 1531 1531 1532 1531 1531 1531 1531 1529 1529 1528 1527 1527 1526 1525 1524 1522 1521 1520 1519 1519 1518 1517 1517 1517 1518
1502 1500 1500 1501 1502 1503 1503 1504 1505 1504 1505 1506 1509 1512 1514 1517 1519 1521 1523 1525 1527 1528 1530 1530 1531 1532 1532 1532 1531 1531 1530 1529 1529 1528 1527 1526 1526 1525 1524 1523 1521 1520 1519 1519 1517 1517 1517 1517 1516
1500 1500 1501 1502 1504 1504 1504 1504 1504 1504 1505 1507 1509 1511 1514 1516 1519 1521 1523 1525 1527 1528 1530 1530 1531 1532 1532 1532 1531 1531 1531 1530 1529 1528 1527 1526 1525 1524 1523 1522 1521 1519 1518 1517 1517 1516 1516 1515 1515
1499 1499 1502 1503 1504 1504 1504 1504 1504 1504 1506 1507 1509 1511 1513 1516 1519 1521 1523 1525 1527 1528 1529 1530 1531 1531 1532 1531 1531 1531 1530 1530 1529 1527 1527 1526 1525 1524 1522 1521 1519 1519 1517 1517 1515 1515 1514 1514 1513
1497 1499 1501 1502 1503 1503 1503 1503 1503 1503 1505 1507 1509 1510 1513 1515 1518 1521 1522 1524 1526 1528 1529 1530 1530 1531 1531 1531 1531 1530 1530 1528 1528 1527 1526 1525 1524 1523 1521 1520 1519 1517 1516 1515 1514 1514 1513 1513 1512
1499 1499 1500 1500 1501 1502 1503 1501 1500 1502 1504 1506 1508 1510 1513 1515 1517 1520 1521 1524 1526 1527 1528 1529 1530 1530 1530 1530 1530 1529 1529 1529 1528 1527 1526 1525 1523 1522 1521 1519 1518 1517 1515 1514 1513 1513 1512 1512 1511
1497 1499 1500 1498 1499 1501 1504 1502 1499 1501 1503 1504 1507 1509 1512 1514 1516 1518 1520 1523 1524 1526 1527 1528 1528 1529 1529 1529 1529 1529 1528 1528 1527 1526 1525 1524 1523 1521 1519 1518 1517 1515 1514 1513 1512 1512 1511 1511 1510
1497 1498 1498 1498 1498 1498 1499 1499 1498 1501 1502 1503 1505 1508 1510 1512 1515 1517 1519 1521 1523 1525 1526 1527 1528 1528 1528 1528 1528 1528 1528 1527 1526 1525 1524 1523 1522 1520 1519 1517 1516 1515 1513 1512 1511 1511 1510 1510 1509
1497 1494 1495 1495 1495 1496 1497 1496 1496 1499 1501 1502 1503 1506 1508 1510 1513 1515 1517 1519 1521 1523 1525 1526 1526 1527 1527 1527 1527 1527 1527 1526 1525 1524 1523 1522 1521 1519 1518 1517 1516 1514 1513 1511 1510 1510 1508 1508 1508
1489 1491 1493 1493 1494 1495 1495 1494 1494 1497 1499 1500 1501 1503 1506 1508 1511 1513 1515 1517 1519 1521 1523 1524 1525 1526 1526 1526 1526 1526 1526 1525 1525 1524 1522 1521 1520 1519 1517 1516 1515 1513 1512 1511 1510 1509 1508 1507 1507
1490 1492 1494 1494 1494 1494 1493 1493 1492 1495 1497 1499 1500 1501 1504 1506 1509 1511 1513 1515 1518 1520 1521 1523 1524 1524 1525 1525 1525 1525 1525 1524 1524 1522 1522 1521 1519 1518 1517 1516 1514 1513 1511 1510 1508 1507 1507 1506 1506
1491 1492 1493 1495 1494 1493 1494 1494 1491 1492 1496 1498 1500 1501 1503 1505 1507 1510 1512 1514 1516 1518 1520 1521 1522 1523 1523 1524 1524 1524 1524 1523 1523 1522 1521 1520 1519 1517 1516 1514 1513 1512 1511 1509 1508 1507 1506 1506 1506
1494 1492 1493 1494 1493 1495 1493 1499 1491 1490 1493 1496 1498 1500 1502 1504 1506 1508 1510 1513 1514 1516 1518 1520 1521 1522 1522 1522 1523 1523 1523 1523 1523 1522 1521 1520 1518 1517 1515 1514 1512 1511 1510 1509 1507 1506 1505 1505 1505
1491 1491 1491 1492 1492 1493 1492 1492 1492 1490 1493 1494 1497 1499 1501 1503 1505 1507 1509 1511 1513 1515 1516 1518 1519 1520 1521 1521 1522 1522 1522 1522 1522 1521 1520 1519 1518 1516 1515 1513 1512 1510 1509 1508 1506 1505 1505 1504 1504
1492 1492 1493 1491 1490 1499 1495 1493 1498 1492 1492 1493 1495 1498 1500 1502 1504 1506 1508 1510 1512 1513 1515 1516 1517 1518 1519 1520 1520 1521 1521 1521 1520 1520 1519 1519 1518 1516 1515 1513 1511 1510 1509 1507 1506 1505 1504 1504 1503
1490 1491 1500 1501 1501 1500 1494 1494 1498 1493 1494 1495 1496 1498 1500 1501 1503 1505 1506 1508 1510 1511 1513 1514 1516 1517 1518 1518 1519 1520 1520 1520 1520 1519 1519 1518 1517 1516 1514 1513 1511 1509 1508 1506 1505 1504 1504 1503 1503
1487 1486 1495 1502 1501 1497 1494 1495 1494 1494 1496 1496 1497 1498 1499 1501 1502 1504 1505 1507 1508 1510 1511 1513 1514 1515 1516 1517 1518 1518 1518 1518 1518 1518 1517 1517 1516 1515 1514 1512 1510 1509 1507 1506 1505 1504 1503 1503 1502
1486 1486 1483 1485 1489 1494 1494 1493 1492 1494 1495 1496 1497 1498 1499 1501 1502 1503 1505 1506 1507 1508 1509 1511 1512 1514 1515 1515 1516 1517 1517 1517 1517 1516 1516 1515 1515 1514 1512 1511 1510 1508 1507 1505 1504 1504 1503 1502 1501
1484 1483 1485 1486 1497 1503 1501 1497 1496 1495 1495 1496 1497 1499 1500 1501 1502 1503 1504 1505 1506 1507 1508 1509 1510 1512 1513 1514 1515 1515 1515 1515 1515 1515 1514 1514 1513 1512 1511 1510 1509 1508 1506 1505 1504 1503 1502 1501 1500
1487 1487 1484 1485 1486 1496 1505 1503 1494 1495 1496 1497 1499 1500 1501 1502 1503 1503 1504 1505 1505 1506 1507 1508 1509 1510 1511 1512 1513 1513 1513 1513 1513 1513 1512 1512 1512 1511 1510 1509 1508 1507 1506 1505 1503 1502 1501 1500 1500
1481 1481 1481 1487 1491 1490 1493 1503 1495 1497 1499 1499 1500 1502 1502 1503 1503 1503 1504 1504 1505 1505 1506 1506 1507 1508 1509 1510 1510 1511 1511 1511 1511 1511 1511 1510 1510 1509 1509 1508 1507 1506 1505 1504 1503 1501 1500 1499 1499